It's Wednesday,
August 4th, 2021
User not logged in
[Run Race Header Image][Run Race logo]
  
Race webcasting is attempted by race directors and their support staff. Please remember that conditions under which they're working may make it difficult to post timely webcast updates... your interest and patience is appreciated!
Race Information
Race Name:Mad City 100K - 2010
Location:Madison
State:Wisconsin, United States
 button: button: Webcast Autoplay
Event Information
Name of Event:Mad City 100K (solo)
Distance:100 Kilometers
Started Date/Time:Saturday April 10th, 2010, 6:31:01.16 am
button: Assign Numbers 

Event Information
Name of Event:Mad City 50K Relay (2 to 5 runners)
Distance:50 Kilometers
Started Date/Time:Saturday April 10th, 2010, 8:00:15.00 am
button: Assign Numbers  
Checkpoint:2nd Loop - 20 Km
Distance:12.427 Miles
Gun Start Time:Saturday April 10th, 2010 8:00:15 am
Calculate Chip Start Time:< not set >
Y or N... Calculate splits based upon participant chip start time?
Allow Early Chip Start Time:< not set >
Y or N... Allow participants a chip start time prior to gun start?
Pos Race
Number
NameAgeSexTimePace 
12414 Guys and a Crazy Legs ChampM1:23:21.46:42.5
2271Who needs Tabraiz?F1:25:41.96:53.8
3336Running with the BadgerM1:27:49.17:04.0
42961/5 of CrazyF1:28:33.57:07.6
5346Super YoopersM1:28:54.37:09.3
6381Movin' ShoesF1:29:38.17:12.8
7251We've Got The Runs M1:31:53.77:23.7
8226Frenetic Fiery Frenzied Flying Feet of FuryM1:32:51.17:28.3
9321Honduras ExpressF1:33:37.07:32.0
10391Chocolate ThunderM1:36:26.47:45.6
11261Madison Multisport OrangeF1:36:44.07:47.1
12211No Fly ListF1:38:31.57:55.7
13201Whatever, It's Only 50kM1:40:33.48:05.5
14266Madison Multisport BlueF1:42:07.88:13.1
15231Taking 10 for the TeamF1:43:40.88:20.6
16376Bringing Up the RearF1:46:51.18:35.9
17386#1M1:47:13.28:37.7
18246Arborescent RhizomesM1:47:15.98:37.9
19306Weary TravelersF1:48:01.58:41.6
20331Marquette Triathlon Club 2F1:49:17.78:47.7
21236SWAT ONEM1:50:57.28:55.7
22311Marquette Triathlon ClubF1:50:58.68:55.8
23301Run-ternsF1:52:17.19:02.1
24341Weary Travelers 2F1:52:56.89:05.3
25406Wisconsin State JournalF1:53:38.69:08.7
26286SVM Runners 3F1:53:51.69:09.7
27401La Famiglia: A Lapacinski's sequelF1:54:28.49:12.7
28326Feel the Burn!F1:54:54.19:14.8
29371In-Training Exam All-StarsM1:56:59.69:24.9
30361Lawton & Cates M1:58:09.19:30.5
31216We Book F1:58:15.69:31.0
32206Outdoor DivasF1:58:30.19:32.2
33351Red Byrd'sF2:00:24.59:41.4
34281SVM Runners 2F2:01:25.39:46.2
35276SVM RunnersF2:01:25.59:46.3
36291SVM Runners 4F2:01:25.69:46.3
37316Oconomowoc FD and PDF2:10:13.010:28.7
38221We Book2F2:11:17.410:33.9
39356Blue Byrd'sF2:16:33.110:59.3
40256Got-To-GoF2:21:46.311:24.5

Event Information
Name of Event:Mad City 50K (solo)
Distance:50 Kilometers
Started Date/Time:Saturday April 10th, 2010, 8:00:15.00 am
button: Assign Numbers 
2004-2021 : All rights reserved
Terms and Conditions